Preview of NWS' New Version of Forecast
This preview is not operational and should not be used for support decisions.

Terminal Aerodrome Forecast (TAF)

Issued by National Weather Service (NWS)

                            
000
FTUS43 KDMX 232320
TAFALO
TAF
KALO 232320Z 2400/2424 11007KT P6SM SKC
     FM241800 12010KT P6SM FEW050=